Theta_e
343 341 338 339 339 339 339 339 339 339 340 340 340 341 338 337 336 336 336 336 337 337 340 341 340 339 338 336 335 334 335 336
345 343 343 341 337 337 336 337 337 338 339 340 341 341 344 343 342 340 339 338 338 337 337 338 339 338 338 337 337 336 337 338
341 343 343 341 340 339 339 339 339 339 338 338 339 342 343 342 342 342 341 341 341 341 339 339 339 338 338 338 338 340 341 341
337 338 341 341 339 340 340 339 339 338 338 339 338 338 339 338 339 339 339 339 338 339 339 339 339 342 342 342 342 342 341 342
331 331 332 332 332 335 335 336 335 335 335 336 334 335 336 333 335 333 335 338 338 339 339 341 340 341 342 342 342 342 341 338
327 326 327 327 326 326 328 328 329 329 330 332 333 331 331 331 328 328 329 331 332 333 335 335 338 338 337 338 338 339 337 337
324 324 325 325 325 324 324 324 324 324 325 325 329 329 329 326 326 325 326 326 326 328 330 331 332 333 332 333 333 334 334 334
324 323 324 323 323 323 322 321 320 320 320 320 322 324 325 327 327 326 325 324 325 326 326 327 328 329 329 329 329 329 329 330
323 323 322 322 321 320 319 318 317 316 316 315 316 318 319 320 321 321 319 318 319 320 320 320 322 323 323 323 322 322 323 324
322 320 321 320 319 318 316 316 315 314 313 313 312 313 314 315 316 315 315 315 315 315 316 316 317 317 317 317 317 318 318 320
321 319 320 318 317 316 315 314 313 312 311 311 310 310 311 312 312 312 312 312 313 313 314 314 315 315 314 313 315 317 318 320
320 319 318 317 315 314 313 312 311 310 309 309 309 308 308 309 309 309 309 310 310 310 311 311 312 311 310 312 316 317 320 321
320 319 317 316 314 313 313 312 310 309 307 306 306 306 306 307 306 307 307 308 308 308 309 309 310 309 312 312 313 319 319 319
319 318 317 315 314 314 313 312 310 308 306 305 305 305 305 306 306 306 307 308 308 308 308 309 310 309 309 312 316 317 316 315
318 318 317 315 314 314 312 310 307 306 305 304 304 304 305 305 306 306 306 307 307 306 307 308 309 308 308 309 313 314 310 313
317 317 316 315 314 312 310 309 308 306 305 304 303 303 303 304 304 305 305 305 305 304 305 306 307 307 308 307 307 307 311 311
316 315 315 314 313 311 310 310 309 305 304 303 303 303 303 303 304 304 304 303 303 303 303 304 304 305 305 305 306 307 304 304
315 314 314 314 312 312 311 311 307 304 304 304 303 302 302 302 302 302 302 302 302 302 301 301 302 302 302 301 301 302 300 299
315 313 312 312 312 312 312 310 306 305 304 304 303 302 302 301 301 301 300 300 299 299 299 299 299 299 298 298 297 296 296 297
314 312 311 311 311 311 310 308 305 305 304 303 302 302 301 300 299 299 298 298 297 296 296 296 297 296 296 296 295 293 293 293
Wind_Speed
11 11 13 13 13 12 11 11 11 10 10 11 11 10 10 11 11 11 12 12 12 11 11 11 11 10 10 10 10 10 10 11
11 10 10 9 10 12 12 11 10 10 10 9 9 9 9 8 9 10 10 11 11 12 12 13 13 14 13 13 14 14 13 12
11 10 9 8 8 7 6 6 5 3 3 4 5 5 5 9 11 11 12 12 11 11 12 13 14 14 14 15 15 12 14 14
12 10 9 8 7 6 6 5 4 4 5 5 7 8 9 7 8 7 8 9 8 8 8 8 9 10 11 11 11 13 13 13
13 11 9 8 7 6 6 5 4 2 3 3 4 6 8 4 7 4 2 3 3 2 3 4 4 4 6 7 7 9 10 12
13 11 9 8 6 5 5 5 4 3 1 2 3 3 4 5 5 4 3 1 2 2 3 3 4 5 5 7 6 8 11 8
13 11 10 8 8 7 6 5 5 4 3 2 2 3 2 2 2 1 1 0 1 0 2 4 5 6 6 7 7 8 9 10
13 12 11 10 8 8 7 6 5 5 5 4 3 3 3 2 2 2 1 1 2 3 3 4 6 7 7 8 9 10 10 11
15 13 12 11 11 10 8 7 7 6 5 6 6 4 4 3 2 1 1 2 3 3 4 5 6 7 8 9 9 9 9 10
16 14 13 12 10 9 8 7 7 7 6 5 6 6 5 4 3 2 2 3 3 3 4 5 5 6 7 8 8 8 7 8
18 16 15 14 13 10 9 8 7 7 5 5 6 5 5 5 3 2 3 2 3 4 4 5 6 7 8 9 8 7 6 4
19 18 17 15 14 12 11 8 7 7 5 4 5 5 6 5 5 4 4 3 4 5 5 5 4 8 11 9 6 4 2 1
22 20 19 18 16 15 13 11 9 8 6 6 6 5 6 6 5 4 4 5 5 5 3 2 3 8 6 6 4 2 2 1
24 23 22 20 17 15 13 11 10 9 7 6 5 6 6 6 6 5 5 4 4 5 6 3 4 9 7 6 2 6 3 2
26 25 24 22 18 16 15 12 11 10 9 8 6 6 7 7 7 6 6 5 5 6 7 8 5 6 9 5 3 2 8 9
25 25 25 23 21 19 20 18 15 13 11 9 9 8 7 7 7 7 7 7 7 7 7 7 5 5 2 5 3 3 3 3
24 24 24 23 22 20 21 17 14 15 13 14 11 10 8 8 8 8 8 7 8 8 8 8 7 5 5 4 3 3 3 3
24 25 25 24 23 22 22 19 17 18 16 15 14 12 10 8 8 8 8 7 7 7 7 8 7 7 5 6 5 3 3 2
23 23 24 24 23 23 22 20 20 19 19 15 14 13 11 9 8 7 7 7 7 6 7 7 8 7 6 5 5 4 1 2
22 23 25 23 23 22 21 21 20 18 18 14 13 12 12 10 9 8 6 6 5 6 6 6 7 7 6 4 4 4 4 5
Wind_Direction
142 141 159 167 170 173 174 178 184 189 196 199 200 198 207 214 211 214 219 219 224 224 227 235 246 246 248 252 257 257 262 271
155 152 149 144 161 179 184 189 191 193 197 199 206 212 207 209 217 228 230 229 232 233 236 241 248 252 253 254 259 262 264 263
154 156 155 157 142 148 161 166 165 160 160 185 164 183 195 191 204 215 220 223 227 236 238 242 248 254 259 259 260 261 261 262
155 154 157 158 158 152 153 145 135 135 163 152 190 190 193 189 205 220 221 222 231 236 243 253 264 258 260 264 258 258 269 269
158 152 154 161 165 172 181 189 186 146 109 145 171 182 172 162 164 143 143 154 182 193 226 235 255 280 281 265 266 264 253 262
157 154 152 156 161 172 174 176 178 171 153 124 147 137 183 182 179 184 160 200 230 229 220 234 259 271 275 280 283 276 302 308
162 157 154 155 156 154 149 145 149 143 114 73 150 163 151 135 141 168 136 321 270 189 273 279 277 272 274 276 281 284 293 297
166 161 158 157 150 142 136 133 127 122 110 99 85 140 145 177 173 181 207 306 298 294 282 279 278 277 281 278 283 286 286 286
171 163 156 151 142 138 136 136 132 122 104 89 84 88 92 116 148 132 342 328 335 311 314 295 286 281 284 284 286 285 284 287
173 168 162 152 149 141 138 139 137 124 119 100 88 84 85 91 98 76 29 13 0 347 338 326 308 302 298 298 297 295 294 297
177 171 165 156 150 143 140 140 139 128 128 119 98 85 83 102 100 54 38 35 24 7 351 345 319 313 306 298 287 285 296 307
182 175 166 160 155 149 147 149 145 136 137 126 111 99 94 104 88 74 67 60 39 21 6 352 327 327 311 294 280 277 288 339
186 179 174 170 169 166 164 165 163 149 143 127 115 105 100 105 101 82 78 72 55 29 359 340 1 341 301 336 267 141 99 54
192 187 181 181 179 176 173 168 168 159 145 130 117 108 101 99 106 95 93 94 68 49 37 12 37 19 1 281 262 173 140 157
197 193 187 185 181 170 160 158 161 161 157 144 132 120 113 112 111 112 98 96 78 60 49 41 35 40 34 11 308 336 341 169
205 198 192 189 182 176 172 172 176 182 170 160 142 130 122 114 109 108 105 99 88 69 54 49 34 40 104 41 33 10 338 307
210 205 198 193 188 182 178 185 179 160 167 161 152 140 131 125 116 110 103 94 81 77 72 67 58 50 45 14 32 68 66 288
212 209 205 196 194 191 187 186 172 173 173 171 162 151 141 129 118 109 102 96 87 76 69 64 68 65 61 49 42 12 39 332
211 216 216 204 198 194 190 184 182 180 175 178 168 157 150 139 126 114 109 104 99 93 83 71 61 62 55 65 65 69 53 318
212 220 218 207 203 195 188 182 183 181 177 175 173 159 149 141 130 120 111 104 99 99 97 92 87 76 66 68 85 60 28 32